Danville, KY

7:20 PM EDT on April 21, 2018 (GMT -0400)
Powell

Weather History for KDVK - December, 2011

Change the Weather History Date:

Sunday, December 4, 2011

  Actual Average (KLEX) Record (KLEX)
Temperature  
Mean Temperature 54 °F -  
Max Temperature 62 °F 48 °F 74 °F (1982)
Min Temperature 46 °F 30 °F 10 °F (2000)
Degree Days  
Heating Degree Days 11    
Growing Degree Days 4 (Base 50)    
Moisture  
Dew Point 36 °F    
Average Humidity 50    
Maximum Humidity 63    
Minimum Humidity 43    
Precipitation  
Precipitation 0.00 in - - ()
Sea Level Pressure  
Sea Level Pressure 30.22 in    
Wind  
Wind Speed 10 mph (SSW)    
Max Wind Speed 21 mph    
Max Gust Speed 30 mph    
Visibility 10 miles    
Events      
Averages and records for this station are not official NWS values.
T = Trace of Precipitation, MM = Missing Value Source: NWS Daily Summary

Daily Weather History Graph

Daily Weather History Graph

Search for Another Location

Airport or City:

Astronomy

Dec. 04, 2011 Rise Set
Actual Time 7:37 AM EST 5:20 PM EST
Civil Twilight 7:08 AM EST 5:49 PM EST
Nautical Twilight 6:36 AM EST 6:22 PM EST
Astronomical Twilight 6:04 AM EST 6:53 PM EST
Moon 1:46 PM EST (12/4) 2:07 AM EST (12/4)
Length of Visible Light 10h 40m
Length of Day
9h 42m
Waxing Gibbous, 71% of the Moon is Illuminated
Dec 4
Waxing Gibbous
Dec 10
Full
Dec 17
Last Quarter
Dec 24
New
Jan 1
First Quarter

Hourly Weather History & Observations

Time (EST) Temp. Windchill Dew Point Humidity Pressure Visibility Wind Dir Wind Speed Gust Speed Precip Events Conditions
12:15 AM 46.4 °F 42.4 °F 28.4 °F 50% 30.29 in 10.0 mi South 8.1 mph - N/A   Clear
12:35 AM 46.4 °F 41.9 °F 28.4 °F 50% 30.28 in 10.0 mi South 9.2 mph - N/A   Clear
12:55 AM 46.4 °F 42.9 °F 28.4 °F 50% 30.27 in 10.0 mi South 6.9 mph - N/A   Clear
1:15 AM 46.4 °F 42.4 °F 26.6 °F 46% 30.26 in 10.0 mi South 8.1 mph - N/A   Clear
1:35 AM 46.4 °F 42.9 °F 26.6 °F 46% 30.26 in 10.0 mi South 6.9 mph - N/A   Clear
1:55 AM 46.4 °F 43.5 °F 26.6 °F 46% 30.26 in 10.0 mi SSW 5.8 mph - N/A   Clear
2:15 AM 46.4 °F 42.9 °F 24.8 °F 43% 30.25 in 10.0 mi South 6.9 mph - N/A   Clear
2:35 AM 46.4 °F 41.9 °F 24.8 °F 43% 30.26 in 10.0 mi SSW 9.2 mph - N/A   Clear
2:55 AM 46.4 °F 42.4 °F 24.8 °F 43% 30.26 in 10.0 mi SSW 8.1 mph - N/A   Clear
3:35 AM 46.4 °F 42.4 °F 24.8 °F 43% 30.26 in 10.0 mi South 8.1 mph - N/A   Clear
3:55 AM 46.4 °F 41.5 °F 24.8 °F 43% 30.25 in 10.0 mi South 10.4 mph - N/A   Clear
4:15 AM 46.4 °F 41.5 °F 24.8 °F 43% 30.25 in 10.0 mi South 10.4 mph - N/A   Clear
4:35 AM 46.4 °F 40.7 °F 24.8 °F 43% 30.24 in 10.0 mi South 12.7 mph - N/A   Clear
4:55 AM 46.4 °F 41.9 °F 26.6 °F 46% 30.24 in 10.0 mi SSW 9.2 mph - N/A   Clear
5:15 AM 46.4 °F 42.9 °F 26.6 °F 46% 30.24 in 10.0 mi SSW 6.9 mph - N/A   Clear
5:35 AM 48.2 °F - 26.6 °F 43% 30.24 in 10.0 mi SSW 8.1 mph - N/A   Clear
5:55 AM 48.2 °F - 26.6 °F 43% 30.24 in 10.0 mi South 6.9 mph - N/A   Clear
6:15 AM 48.2 °F - 28.4 °F 46% 30.24 in 10.0 mi South 8.1 mph - N/A   Clear
6:35 AM 48.2 °F - 28.4 °F 46% 30.24 in 10.0 mi South 10.4 mph 17.3 mph N/A   Clear
7:15 AM 50.0 °F - 30.2 °F 47% 30.26 in 10.0 mi SSW 6.9 mph - N/A   Scattered Clouds
7:35 AM 51.8 °F - 30.2 °F 44% 30.26 in 10.0 mi South 11.5 mph 16.1 mph N/A   Unknown
7:55 AM 51.8 °F - 30.2 °F 44% 30.25 in 10.0 mi South 10.4 mph - N/A   Unknown
8:15 AM 51.8 °F - 32.0 °F 47% 30.26 in 10.0 mi SSW 11.5 mph 17.3 mph N/A   Unknown
8:35 AM 51.8 °F - 33.8 °F 50% 30.25 in 10.0 mi SSW 11.5 mph 17.3 mph N/A   Unknown
8:55 AM 51.8 °F - 35.6 °F 54% 30.25 in 10.0 mi South 9.2 mph - N/A   Unknown
9:15 AM 53.6 °F - 35.6 °F 51% 30.25 in 10.0 mi SSW 12.7 mph 19.6 mph N/A   Unknown
9:35 AM 53.6 °F - 35.6 °F 51% 30.24 in 10.0 mi South 13.8 mph 21.9 mph N/A   Clear
9:55 AM 53.6 °F - 37.4 °F 54% 30.25 in 10.0 mi SSW 16.1 mph 20.7 mph N/A   Scattered Clouds
10:15 AM 55.4 °F - 37.4 °F 51% 30.24 in 10.0 mi SSW 15.0 mph 21.9 mph N/A   Mostly Cloudy
10:35 AM 55.4 °F - 37.4 °F 51% 30.24 in 10.0 mi SSW 12.7 mph 21.9 mph N/A   Mostly Cloudy
11:15 AM 57.2 °F - 39.2 °F 51% 30.23 in 10.0 mi South 13.8 mph 21.9 mph N/A   Overcast
11:35 AM 57.2 °F - 39.2 °F 51% 30.22 in 10.0 mi SSW 15.0 mph 29.9 mph N/A   Mostly Cloudy
11:55 AM 57.2 °F - 39.2 °F 51% 30.22 in 10.0 mi SSW 18.4 mph 26.5 mph N/A   Mostly Cloudy
12:15 PM 57.2 °F - 39.2 °F 51% 30.22 in 10.0 mi SSW 20.7 mph 25.3 mph N/A   Mostly Cloudy
12:35 PM 57.2 °F - 39.2 °F 51% 30.21 in 10.0 mi SSW 12.7 mph 21.9 mph N/A   Overcast
12:55 PM 59.0 °F - 39.2 °F 48% 30.20 in 10.0 mi SSW 15.0 mph 19.6 mph N/A   Mostly Cloudy
1:15 PM 60.8 °F - 39.2 °F 45% 30.19 in 10.0 mi SSW 13.8 mph 20.7 mph N/A   Unknown
1:35 PM 60.8 °F - 41.0 °F 48% 30.17 in 10.0 mi South 12.7 mph 23.0 mph N/A   Unknown
1:55 PM 60.8 °F - 41.0 °F 48% 30.17 in 10.0 mi SSW 16.1 mph 21.9 mph N/A   Unknown
2:15 PM 60.8 °F - 41.0 °F 48% 30.16 in 10.0 mi SSW 15.0 mph 25.3 mph N/A   Unknown
2:35 PM 60.8 °F - 41.0 °F 48% 30.17 in 10.0 mi SSW 12.7 mph 17.3 mph N/A   Scattered Clouds
2:55 PM 60.8 °F - 42.8 °F 52% 30.16 in 10.0 mi SSW 8.1 mph - N/A   Unknown
3:15 PM 60.8 °F - 42.8 °F 52% 30.16 in 10.0 mi SSW 8.1 mph - N/A   Unknown
3:35 PM 62.6 °F - 42.8 °F 48% 30.16 in 10.0 mi South 8.1 mph 16.1 mph N/A   Mostly Cloudy
3:55 PM 62.6 °F - 42.8 °F 48% 30.16 in 10.0 mi SSW 12.7 mph 18.4 mph N/A   Unknown
4:15 PM 62.6 °F - 42.8 °F 48% 30.16 in 10.0 mi South 11.5 mph 16.1 mph N/A   Unknown
4:35 PM 60.8 °F - 42.8 °F 52% 30.16 in 10.0 mi South 9.2 mph 16.1 mph N/A   Unknown
4:55 PM 60.8 °F - 42.8 °F 52% 30.17 in 10.0 mi SSW 9.2 mph - N/A   Overcast
5:15 PM 60.8 °F - 42.8 °F 52% 30.17 in 10.0 mi SSW 9.2 mph 16.1 mph N/A   Overcast
5:35 PM 60.8 °F - 42.8 °F 52% 30.17 in 10.0 mi SSW 11.5 mph 18.4 mph N/A   Overcast
5:55 PM 60.8 °F - 42.8 °F 52% 30.17 in 10.0 mi South 10.4 mph 17.3 mph N/A   Overcast
6:15 PM 60.8 °F - 42.8 °F 52% 30.18 in 10.0 mi South 8.1 mph - N/A   Overcast
6:35 PM 60.8 °F - 42.8 °F 52% 30.19 in 10.0 mi South 9.2 mph 17.3 mph N/A   Overcast
6:55 PM 60.8 °F - 42.8 °F 52% 30.19 in 10.0 mi SSW 8.1 mph 17.3 mph N/A   Overcast
7:15 PM 59.0 °F - 42.8 °F 55% 30.20 in 10.0 mi SSW 11.5 mph - N/A   Overcast
7:35 PM 60.8 °F - 42.8 °F 52% 30.21 in 10.0 mi SSW 9.2 mph - N/A   Overcast
7:55 PM 59.0 °F - 42.8 °F 55% 30.21 in 10.0 mi SSW 4.6 mph - N/A   Overcast
8:15 PM 57.2 °F - 42.8 °F 59% 30.22 in 10.0 mi SSW 4.6 mph - N/A   Overcast
8:35 PM 57.2 °F - 44.6 °F 63% 30.21 in 10.0 mi SSW 3.5 mph - N/A   Overcast
8:55 PM 57.2 °F - 44.6 °F 63% 30.21 in 10.0 mi SSW 4.6 mph - N/A   Overcast
9:15 PM 57.2 °F - 44.6 °F 63% 30.20 in 10.0 mi SSW 4.6 mph - N/A   Unknown
9:35 PM 57.2 °F - 44.6 °F 63% 30.19 in 10.0 mi South 4.6 mph - N/A   Overcast
9:55 PM 57.2 °F - 44.6 °F 63% 30.18 in 10.0 mi South 5.8 mph - N/A   Overcast
10:15 PM 57.2 °F - 44.6 °F 63% 30.17 in 10.0 mi South 8.1 mph - N/A   Overcast
10:35 PM 57.2 °F - 44.6 °F 63% 30.16 in 10.0 mi South 8.1 mph - N/A   Mostly Cloudy
10:55 PM 57.2 °F - 44.6 °F 63% 30.16 in 10.0 mi South 6.9 mph - N/A   Unknown
11:15 PM 57.2 °F - 44.6 °F 63% 30.16 in 10.0 mi South 8.1 mph - N/A   Unknown
11:35 PM 57.2 °F - 44.6 °F 63% 30.15 in 10.0 mi South 9.2 mph - N/A   Unknown
11:55 PM 57.2 °F - 44.6 °F 63% 30.15 in 10.0 mi South 8.1 mph - N/A   Unknown